This demonstration page uses our WeatherBlox Daily Observations layout. Learn more.

39.29038, -76.61219

Hourly Observations for October 16, 2019

Temp ( °F °C ) Dew Point ( °F °C ) Humidity (%) Winds ( mph kmh ) Pressure ( in mb ) Visibility ( mi km ) Precip ( " mm )
12:54 am 00:54 undefined 59 15 53 11.7 81 81 undefined N/A 30.01 1016 N/A 0 0
1:54 am 01:54 undefined 59 15 53 11.7 81 81 undefined N/A 30 1016 N/A 0 0
2:54 am 02:54 undefined 60 15.6 55 12.8 84 84 undefined N/A 29.98 1015 N/A 0 0
3:54 am 03:54 undefined 61 16.1 58 14.4 90 90 undefined N/A 29.94 1014 N/A 0 0
4:54 am 04:54 undefined 62 16.7 59 15 90 90 undefined N/A 29.93 1014 N/A 0 0
5:54 am 05:54 undefined 62 16.7 59 15 90 90 undefined N/A 29.9 1012 N/A 0 0
6:54 am 06:54 undefined 63 17.2 60 15.6 90 90 undefined N/A 29.87 1012 N/A 0 0
7:54 am 07:54 undefined 63 17.2 60 15.6 90 90 undefined N/A 29.88 1012 N/A 0 0
8:54 am 08:54 undefined 64 17.8 60 15.6 87 87 undefined N/A 29.84 1010 N/A 0 0
9:54 am 09:54 undefined 64 17.8 60 15.6 87 87 undefined N/A 29.8 1009 N/A 0 0
10:54 am 10:54 undefined 64 17.8 60 15.6 87 87 undefined N/A 29.73 1007 N/A 0.01 0.254
11:54 am 11:54 undefined 63 17.2 60 15.6 90 90 undefined N/A 29.69 1006 N/A 0.05 1.27
12:54 pm 12:54 undefined 63 17.2 62 16.7 97 97 undefined N/A 29.65 1004 N/A 0.28 7.112
1:54 pm 13:54 undefined 63 17.2 61 16.1 93 93 undefined N/A 29.61 1003 N/A 0.38 9.652
2:54 pm 14:54 undefined 60 15.6 58 14.4 93 93 undefined N/A 29.54 1001 N/A 0.31 7.874
3:54 pm 15:54 undefined 61 16.1 58 14.4 90 90 undefined N/A 29.49 999 N/A 0.31 7.874
4:54 pm 16:54 undefined 60 15.6 56 13.3 86 86 undefined N/A 29.47 998 N/A 0.03 0.762
5:54 pm 17:54 undefined 60 15.6 51 10.6 72 72 undefined N/A 29.47 998 N/A 0 0
6:54 pm 18:54 undefined 59 15 47 8.3 64 64 undefined N/A 29.48 998 N/A 0 0
7:54 pm 19:54 undefined 57 13.9 43 6.1 60 60 undefined N/A 29.49 999 N/A 0 0
8:54 pm 20:54 undefined 56 13.3 41 5 57 57 undefined N/A 29.5 999 N/A 0 0
9:54 pm 21:54 undefined 55 12.8 39 3.9 55 55 undefined N/A 29.52 1000 N/A 0 0
10:54 pm 22:54 undefined 53 11.7 38 3.3 57 57 undefined N/A 29.52 1000 N/A 0 0
11:54 pm 23:54 undefined 53 11.7 38 3.3 57 57 undefined N/A 29.54 1000 N/A 0 0

Powered by AerisWeather